Year,Month,Day,Hour,Minute,Value (Times are PST for temperature in C)
2014,01,22,09,33,4.90
2014,01,22,09,34,4.90
2014,01,22,09,35,4.90
2014,01,22,09,36,4.90
2014,01,22,09,37,4.90
2014,01,22,09,38,4.90
2014,01,22,09,39,4.90
2014,01,22,09,40,4.90
2014,01,22,09,41,4.90
2014,01,22,09,42,4.90
2014,01,22,09,43,4.90
2014,01,22,09,44,4.90
2014,01,22,09,45,4.90
2014,01,22,09,46,4.90
2014,01,22,09,47,4.90
2014,01,22,09,48,4.90
2014,01,22,09,49,4.90
2014,01,22,09,50,4.90
2014,01,22,09,51,4.90
2014,01,22,09,52,4.90
2014,01,22,09,53,4.90
2014,01,22,09,54,4.90
2014,01,22,09,55,4.90
2014,01,22,09,56,4.90
2014,01,22,09,57,4.90
2014,01,22,09,58,4.90
2014,01,22,09,59,4.90
2014,01,22,10,00,4.90
2014,01,22,10,01,4.90
2014,01,22,10,02,4.90
2014,01,22,10,03,4.90
2014,01,22,10,04,4.90
2014,01,22,10,05,4.90
2014,01,22,10,06,4.90
2014,01,22,10,07,4.90
2014,01,22,10,08,4.90
2014,01,22,10,09,4.90
2014,01,22,10,10,4.90
2014,01,22,10,11,4.90
2014,01,22,10,12,4.90
2014,01,22,10,13,4.90
2014,01,22,10,14,4.90
2014,01,22,10,15,4.90
2014,01,22,10,16,4.90
2014,01,22,10,17,4.90
2014,01,22,10,18,4.90
2014,01,22,10,19,4.90
2014,01,22,10,20,4.90
2014,01,22,10,21,4.90
2014,01,22,10,22,4.90
2014,01,22,10,23,4.90
2014,01,22,10,24,4.90
2014,01,22,10,25,4.90
2014,01,22,10,26,4.90
2014,01,22,10,27,4.90
2014,01,22,10,28,4.90
2014,01,22,10,29,4.90
2014,01,22,10,30,4.90
2014,01,22,10,31,4.90
2014,01,22,10,32,4.90
2014,01,22,10,33,4.90
2014,01,22,10,34,4.90
2014,01,22,10,35,4.90
2014,01,22,10,36,5.10
2014,01,22,10,37,5.10
2014,01,22,10,38,5.10
2014,01,22,10,39,5.10
2014,01,22,10,40,5.10
2014,01,22,10,41,5.10
2014,01,22,10,42,5.10
2014,01,22,10,43,5.10
2014,01,22,10,44,5.10
2014,01,22,10,45,5.10
2014,01,22,10,46,5.10
2014,01,22,10,47,5.10
2014,01,22,10,48,5.20
2014,01,22,10,49,5.20
2014,01,22,10,50,5.20
2014,01,22,10,51,5.20
2014,01,22,10,52,5.20
2014,01,22,10,53,5.30
2014,01,22,10,54,5.30
2014,01,22,10,55,5.30
2014,01,22,10,56,5.30
2014,01,22,10,57,5.30
2014,01,22,10,58,5.30
2014,01,22,10,59,5.30
2014,01,22,11,00,5.30
2014,01,22,11,01,5.30
2014,01,22,11,02,5.30
2014,01,22,11,03,5.30
2014,01,22,11,04,5.30
2014,01,22,11,05,5.30
2014,01,22,11,06,5.30
2014,01,22,11,07,5.30
2014,01,22,11,08,5.30
2014,01,22,11,09,5.30
2014,01,22,11,10,5.30
2014,01,22,11,11,5.30
2014,01,22,11,12,5.30
2014,01,22,11,13,5.40
2014,01,22,11,14,5.40
2014,01,22,11,15,5.40
2014,01,22,11,16,5.40
2014,01,22,11,17,5.40
2014,01,22,11,18,5.40
2014,01,22,11,19,5.50
2014,01,22,11,20,5.50
2014,01,22,11,21,5.50
2014,01,22,11,22,5.50
2014,01,22,11,23,5.50
2014,01,22,11,24,5.50
2014,01,22,11,25,5.50
2014,01,22,11,26,5.50
2014,01,22,11,27,5.60
2014,01,22,11,28,5.60
2014,01,22,11,29,5.60
2014,01,22,11,30,5.60
2014,01,22,11,31,5.60
2014,01,22,11,32,5.60
2014,01,22,11,33,5.60
2014,01,22,11,34,5.70
2014,01,22,11,35,5.70
2014,01,22,11,36,5.70
2014,01,22,11,37,5.70
2014,01,22,11,38,5.70
2014,01,22,11,39,5.70
2014,01,22,11,40,5.70
2014,01,22,11,41,5.70
2014,01,22,11,42,5.70
2014,01,22,11,43,5.70
2014,01,22,11,44,5.80
2014,01,22,11,45,5.80
2014,01,22,11,46,5.80
2014,01,22,11,47,5.80
2014,01,22,11,48,5.90
2014,01,22,11,49,5.90
2014,01,22,11,50,5.90
2014,01,22,11,51,5.90
2014,01,22,11,52,5.90
2014,01,22,11,53,5.90
2014,01,22,11,54,6.00
2014,01,22,11,55,6.00
2014,01,22,11,56,6.00
2014,01,22,11,57,6.00
2014,01,22,11,58,6.00
2014,01,22,11,59,6.10
2014,01,22,12,00,6.10
2014,01,22,12,01,6.10
2014,01,22,12,02,6.10
2014,01,22,12,03,6.20
2014,01,22,12,04,6.20
2014,01,22,12,05,6.20
2014,01,22,12,06,6.20
2014,01,22,12,07,6.20
2014,01,22,12,08,6.20
2014,01,22,12,09,6.20
2014,01,22,12,10,6.20
2014,01,22,12,11,6.20
2014,01,22,12,12,6.20
2014,01,22,12,13,6.20
2014,01,22,12,14,6.20
2014,01,22,12,15,6.20
2014,01,22,12,16,6.20
2014,01,22,12,17,6.20
2014,01,22,12,18,6.20
2014,01,22,12,19,6.20
2014,01,22,12,20,6.20
2014,01,22,12,21,6.20
2014,01,22,12,22,6.20
2014,01,22,12,23,6.20
2014,01,22,12,24,6.20
2014,01,22,12,25,6.20
2014,01,22,12,26,6.20
2014,01,22,12,27,6.20
2014,01,22,12,28,6.20
2014,01,22,12,29,6.20
2014,01,22,12,30,6.20
2014,01,22,12,31,6.20
2014,01,22,12,32,6.20
2014,01,22,12,33,6.20
2014,01,22,12,34,6.20
2014,01,22,12,35,6.20
2014,01,22,12,36,6.20
2014,01,22,12,37,6.20
2014,01,22,12,38,6.30
2014,01,22,12,39,6.30
2014,01,22,12,40,6.30
2014,01,22,12,41,6.40
2014,01,22,12,42,6.40
2014,01,22,12,43,6.40
2014,01,22,12,44,6.40
2014,01,22,12,45,6.40
2014,01,22,12,46,6.40
2014,01,22,12,47,6.40
2014,01,22,12,48,6.40
2014,01,22,12,49,6.40
2014,01,22,12,50,6.40
2014,01,22,12,51,6.40
2014,01,22,12,52,6.40
2014,01,22,12,53,6.40
2014,01,22,12,54,6.40
2014,01,22,12,55,6.40
2014,01,22,12,56,6.40
2014,01,22,12,57,6.40
2014,01,22,12,58,6.40
2014,01,22,12,59,6.40
2014,01,22,13,00,6.40
2014,01,22,13,01,6.40
2014,01,22,13,02,6.40
2014,01,22,13,03,6.40
2014,01,22,13,04,6.40
2014,01,22,13,05,6.40
2014,01,22,13,06,6.40
2014,01,22,13,07,6.40
2014,01,22,13,08,6.50
2014,01,22,13,09,6.60
2014,01,22,13,10,6.60
2014,01,22,13,11,6.60
2014,01,22,13,12,6.60
2014,01,22,13,13,6.60
2014,01,22,13,14,6.60
2014,01,22,13,15,6.60
2014,01,22,13,16,6.60
2014,01,22,13,17,6.60
2014,01,22,13,18,6.60
2014,01,22,13,19,6.60
2014,01,22,13,20,6.60
2014,01,22,13,21,6.60
2014,01,22,13,22,6.60
2014,01,22,13,23,6.70
2014,01,22,13,24,6.70
2014,01,22,13,25,6.70
2014,01,22,13,26,6.70
2014,01,22,13,27,6.70
2014,01,22,13,28,6.80
2014,01,22,13,29,6.80
2014,01,22,13,30,6.80
2014,01,22,13,31,6.80
2014,01,22,13,32,6.80
2014,01,22,13,33,6.80
2014,01,22,13,34,6.80
2014,01,22,13,35,6.80
2014,01,22,13,36,6.80
2014,01,22,13,37,6.90
2014,01,22,13,38,6.90
2014,01,22,13,39,6.90
2014,01,22,13,40,6.80
2014,01,22,13,41,6.80
2014,01,22,13,42,6.80
2014,01,22,13,43,6.80
2014,01,22,13,44,6.90
2014,01,22,13,45,6.90
2014,01,22,13,46,6.90
2014,01,22,13,47,6.90
2014,01,22,13,48,6.90
2014,01,22,13,49,7.00
2014,01,22,13,50,7.00
2014,01,22,13,51,7.00
2014,01,22,13,52,7.00
2014,01,22,13,53,7.00
2014,01,22,13,54,7.00
2014,01,22,13,55,7.00
2014,01,22,13,56,7.00
2014,01,22,13,57,7.10
2014,01,22,13,58,7.10
2014,01,22,13,59,7.10
2014,01,22,14,00,7.10
2014,01,22,14,01,7.20
2014,01,22,14,02,7.20
2014,01,22,14,03,7.20
2014,01,22,14,04,7.20
2014,01,22,14,05,7.20
2014,01,22,14,06,7.30
2014,01,22,14,07,7.30
2014,01,22,14,08,7.30
2014,01,22,14,09,7.30
2014,01,22,14,10,7.30
2014,01,22,14,11,7.30
2014,01,22,14,12,7.30
2014,01,22,14,13,7.30
2014,01,22,14,14,7.30
2014,01,22,14,15,7.30
2014,01,22,14,16,7.30
2014,01,22,14,17,7.30
2014,01,22,14,18,7.30
2014,01,22,14,19,7.30
2014,01,22,14,20,7.30
2014,01,22,14,21,7.30
2014,01,22,14,22,7.30
2014,01,22,14,23,7.30
2014,01,22,14,24,7.30
2014,01,22,14,25,7.30
2014,01,22,14,26,7.30
2014,01,22,14,27,7.30
2014,01,22,14,28,7.30
2014,01,22,14,29,7.30
2014,01,22,14,30,7.30
2014,01,22,14,31,7.30
2014,01,22,14,32,7.30
2014,01,22,14,33,7.20
2014,01,22,14,34,7.20
2014,01,22,14,35,7.20
2014,01,22,14,36,7.20
2014,01,22,14,37,7.20
2014,01,22,14,38,7.20
2014,01,22,14,39,7.20
2014,01,22,14,40,7.20
2014,01,22,14,41,7.20
2014,01,22,14,42,7.20
2014,01,22,14,43,7.20
2014,01,22,14,44,7.20
2014,01,22,14,45,7.20
2014,01,22,14,46,7.20
2014,01,22,14,47,7.20
2014,01,22,14,48,7.10
2014,01,22,14,49,7.10
2014,01,22,14,50,7.10
2014,01,22,14,51,7.10
2014,01,22,14,52,7.10
2014,01,22,14,53,7.10
2014,01,22,14,54,7.10
2014,01,22,14,55,7.10
2014,01,22,14,56,7.10
2014,01,22,14,57,7.10
2014,01,22,14,58,7.10
2014,01,22,14,59,7.10
2014,01,22,15,00,7.00
2014,01,22,15,01,7.00
2014,01,22,15,02,7.00
2014,01,22,15,03,7.00
2014,01,22,15,04,7.00
2014,01,22,15,05,7.00
2014,01,22,15,06,7.00
2014,01,22,15,07,7.00
2014,01,22,15,08,7.00
2014,01,22,15,09,7.00
2014,01,22,15,10,7.00
2014,01,22,15,11,7.00
2014,01,22,15,12,7.00
2014,01,22,15,13,7.00
2014,01,22,15,14,7.00
2014,01,22,15,15,6.90
2014,01,22,15,16,6.90
2014,01,22,15,17,6.90
2014,01,22,15,18,6.90
2014,01,22,15,19,6.90
2014,01,22,15,20,6.90
2014,01,22,15,21,6.90
2014,01,22,15,22,6.90
2014,01,22,15,23,6.90
2014,01,22,15,24,6.80
2014,01,22,15,25,6.80
2014,01,22,15,26,6.80
2014,01,22,15,27,6.80
2014,01,22,15,28,6.80
2014,01,22,15,29,6.80
2014,01,22,15,30,6.80
2014,01,22,15,31,6.80
2014,01,22,15,32,6.80
2014,01,22,15,33,6.80
2014,01,22,15,34,6.80
2014,01,22,15,35,6.80
2014,01,22,15,36,6.80
2014,01,22,15,37,6.80
2014,01,22,15,38,6.80
2014,01,22,15,39,6.80
2014,01,22,15,40,6.80
2014,01,22,15,41,6.80
2014,01,22,15,42,6.80
2014,01,22,15,43,6.80
2014,01,22,15,44,6.80
2014,01,22,15,45,6.70
2014,01,22,15,46,6.70
2014,01,22,15,47,6.70
2014,01,22,15,48,6.70
2014,01,22,15,49,6.70
2014,01,22,15,50,6.70
2014,01,22,15,51,6.60
2014,01,22,15,52,6.60
2014,01,22,15,53,6.60
2014,01,22,15,54,6.60
2014,01,22,15,55,6.60
2014,01,22,15,56,6.60
2014,01,22,15,57,6.60
2014,01,22,15,58,6.50
2014,01,22,15,59,6.40
2014,01,22,16,00,6.40
2014,01,22,16,01,6.40
2014,01,22,16,02,6.40
2014,01,22,16,03,6.40
2014,01,22,16,04,6.40
2014,01,22,16,05,6.40
2014,01,22,16,06,6.40
2014,01,22,16,07,6.40
2014,01,22,16,08,6.30
2014,01,22,16,09,6.30
2014,01,22,16,10,6.30
2014,01,22,16,11,6.30
2014,01,22,16,12,6.30
2014,01,22,16,13,6.20
2014,01,22,16,14,6.20
2014,01,22,16,15,6.20
2014,01,22,16,16,6.20
2014,01,22,16,17,6.20
2014,01,22,16,18,6.20
2014,01,22,16,19,6.20
2014,01,22,16,20,6.20
2014,01,22,16,21,6.20
2014,01,22,16,22,6.20
2014,01,22,16,23,6.20
2014,01,22,16,24,6.20
2014,01,22,16,25,6.10
2014,01,22,16,26,6.10
2014,01,22,16,27,6.10
2014,01,22,16,28,6.10
2014,01,22,16,29,6.10
2014,01,22,16,30,6.00
2014,01,22,16,31,6.00
2014,01,22,16,32,6.00
2014,01,22,16,33,6.00
2014,01,22,16,34,6.00
2014,01,22,16,35,5.90
2014,01,22,16,36,5.90
2014,01,22,16,37,5.90
2014,01,22,16,38,5.90
2014,01,22,16,39,5.80
2014,01,22,16,40,5.80
2014,01,22,16,41,5.80
2014,01,22,16,42,5.70
2014,01,22,16,43,5.70
2014,01,22,16,44,5.70
2014,01,22,16,45,5.70
2014,01,22,16,46,5.70
2014,01,22,16,47,5.60
2014,01,22,16,48,5.60
2014,01,22,16,49,5.50
2014,01,22,16,50,5.50
2014,01,22,16,51,5.40
2014,01,22,16,52,5.40
2014,01,22,16,53,5.40
2014,01,22,16,54,5.30
2014,01,22,16,55,5.30
2014,01,22,16,56,5.30
2014,01,22,16,57,5.30
2014,01,22,16,58,5.30
2014,01,22,16,59,5.20
2014,01,22,17,00,5.20
2014,01,22,17,01,5.20
2014,01,22,17,02,5.10
2014,01,22,17,03,5.10
2014,01,22,17,04,5.10
2014,01,22,17,05,5.10
2014,01,22,17,06,5.10
2014,01,22,17,07,5.10
2014,01,22,17,08,5.10
2014,01,22,17,09,5.00
2014,01,22,17,10,4.90
2014,01,22,17,11,4.90
2014,01,22,17,12,4.90
2014,01,22,17,13,4.80
2014,01,22,17,14,4.80
2014,01,22,17,15,4.80
2014,01,22,17,16,4.70
2014,01,22,17,17,4.70
2014,01,22,17,18,4.60
2014,01,22,17,19,4.60
2014,01,22,17,20,4.60
2014,01,22,17,21,4.50
2014,01,22,17,22,4.50
2014,01,22,17,23,4.40
2014,01,22,17,24,4.40
2014,01,22,17,25,4.30
2014,01,22,17,26,4.20
2014,01,22,17,27,4.20
2014,01,22,17,28,4.20
2014,01,22,17,29,4.20
2014,01,22,17,30,4.20
2014,01,22,17,31,4.20
2014,01,22,17,32,4.20
2014,01,22,17,33,4.20
2014,01,22,17,34,4.10
2014,01,22,17,35,4.10
2014,01,22,17,36,4.00
2014,01,22,17,37,4.00
2014,01,22,17,38,4.00
2014,01,22,17,39,3.90
2014,01,22,17,40,3.80
2014,01,22,17,41,3.80
2014,01,22,17,42,3.80
2014,01,22,17,43,3.70
2014,01,22,17,44,3.70
2014,01,22,17,45,3.60
2014,01,22,17,46,3.60
2014,01,22,17,47,3.60
2014,01,22,17,48,3.50
2014,01,22,17,49,3.50
2014,01,22,17,50,3.50
2014,01,22,17,51,3.50
2014,01,22,17,52,3.40
2014,01,22,17,53,3.40
2014,01,22,17,54,3.40
2014,01,22,17,55,3.40
2014,01,22,17,56,3.40
2014,01,22,17,57,3.30
2014,01,22,17,58,3.30
2014,01,22,17,59,3.30
2014,01,22,18,00,3.30
2014,01,22,18,01,3.30
2014,01,22,18,02,3.30
2014,01,22,18,03,3.30
2014,01,22,18,04,3.30
2014,01,22,18,05,3.30
2014,01,22,18,06,3.20
2014,01,22,18,07,3.20
2014,01,22,18,08,3.20
2014,01,22,18,09,3.20
2014,01,22,18,10,3.10
2014,01,22,18,11,3.10
2014,01,22,18,12,3.10
2014,01,22,18,13,3.10
2014,01,22,18,14,3.10
2014,01,22,18,15,3.00
2014,01,22,18,16,2.90
2014,01,22,18,17,2.90
2014,01,22,18,18,2.90
2014,01,22,18,19,2.90
2014,01,22,18,20,2.90
2014,01,22,18,21,2.90
2014,01,22,18,22,2.90
2014,01,22,18,23,2.80
2014,01,22,18,24,2.80
2014,01,22,18,25,2.80
2014,01,22,18,26,2.80
2014,01,22,18,27,2.80
2014,01,22,18,28,2.80
2014,01,22,18,29,2.70
2014,01,22,18,30,2.70
2014,01,22,18,31,2.70
2014,01,22,18,32,2.70
2014,01,22,18,33,2.70
2014,01,22,18,34,2.70
2014,01,22,18,35,2.70
2014,01,22,18,36,2.70
2014,01,22,18,37,2.70
2014,01,22,18,38,2.70
2014,01,22,18,39,2.70
2014,01,22,18,40,2.70
2014,01,22,18,41,2.70
2014,01,22,18,42,2.70
2014,01,22,18,43,2.70
2014,01,22,18,44,2.70
2014,01,22,18,45,2.70
2014,01,22,18,46,2.70
2014,01,22,18,47,2.70
2014,01,22,18,48,2.70
2014,01,22,18,49,2.70
2014,01,22,18,50,2.70
2014,01,22,18,51,2.70
2014,01,22,18,52,2.60
2014,01,22,18,53,2.60
2014,01,22,18,54,2.60
2014,01,22,18,55,2.60
2014,01,22,18,56,2.60
2014,01,22,18,57,2.60
2014,01,22,18,58,2.60
2014,01,22,18,59,2.60
2014,01,22,19,00,2.60
2014,01,22,19,01,2.60
2014,01,22,19,02,2.60
2014,01,22,19,03,2.60
2014,01,22,19,04,2.50
2014,01,22,19,05,2.50
2014,01,22,19,06,2.50
2014,01,22,19,07,2.40
2014,01,22,19,08,2.40
2014,01,22,19,09,2.40
2014,01,22,19,10,2.40
2014,01,22,19,11,2.30
2014,01,22,19,12,2.30
2014,01,22,19,13,2.30
2014,01,22,19,14,2.20
2014,01,22,19,15,2.20
2014,01,22,19,16,2.20
2014,01,22,19,17,2.20
2014,01,22,19,18,2.20
2014,01,22,19,19,2.20
2014,01,22,19,20,2.20
2014,01,22,19,21,2.20
2014,01,22,19,22,2.20
2014,01,22,19,23,2.10
2014,01,22,19,24,2.10
2014,01,22,19,25,2.10
2014,01,22,19,26,2.10
2014,01,22,19,27,2.10
2014,01,22,19,28,2.10
2014,01,22,19,29,2.10
2014,01,22,19,30,2.10
2014,01,22,19,31,2.10
2014,01,22,19,32,2.00
2014,01,22,19,33,2.00
2014,01,22,19,34,2.00
2014,01,22,19,35,2.00
2014,01,22,19,36,1.90
2014,01,22,19,37,1.90
2014,01,22,19,38,1.90
2014,01,22,19,39,1.90
2014,01,22,19,40,1.90
2014,01,22,19,41,1.80
2014,01,22,19,42,1.80
2014,01,22,19,43,1.80
2014,01,22,19,44,1.80
2014,01,22,19,45,1.80
2014,01,22,19,46,1.80
2014,01,22,19,47,1.80
2014,01,22,19,48,1.80
2014,01,22,19,49,1.80
2014,01,22,19,50,1.80
2014,01,22,19,51,1.80
2014,01,22,19,52,1.80
2014,01,22,19,53,1.80
2014,01,22,19,54,1.80
2014,01,22,19,55,1.70
2014,01,22,19,56,1.70
2014,01,22,19,57,1.70
2014,01,22,19,58,1.70
2014,01,22,19,59,1.70
2014,01,22,20,00,1.70
2014,01,22,20,01,1.70
2014,01,22,20,02,1.70
2014,01,22,20,03,1.70
2014,01,22,20,04,1.70
2014,01,22,20,05,1.60
2014,01,22,20,06,1.60
2014,01,22,20,07,1.70
2014,01,22,20,08,1.60
2014,01,22,20,09,1.60
2014,01,22,20,10,1.60
2014,01,22,20,11,1.60
2014,01,22,20,12,1.60
2014,01,22,20,13,1.60
2014,01,22,20,14,1.50
2014,01,22,20,15,1.50
2014,01,22,20,16,1.50
2014,01,22,20,17,1.50
2014,01,22,20,18,1.50
2014,01,22,20,19,1.50
2014,01,22,20,20,1.50
2014,01,22,20,21,1.50
2014,01,22,20,22,1.50
2014,01,22,20,23,1.50
2014,01,22,20,24,1.50
2014,01,22,20,25,1.50
2014,01,22,20,26,1.40
2014,01,22,20,27,1.40
2014,01,22,20,28,1.40
2014,01,22,20,29,1.40
2014,01,22,20,30,1.40
2014,01,22,20,31,1.40
2014,01,22,20,32,1.30
2014,01,22,20,33,1.30
2014,01,22,20,34,1.30
2014,01,22,20,35,1.30
2014,01,22,20,36,1.30
2014,01,22,20,37,1.30
2014,01,22,20,38,1.30
2014,01,22,20,39,1.20
2014,01,22,20,40,1.20
2014,01,22,20,41,1.20
2014,01,22,20,42,1.20
2014,01,22,20,43,1.20
2014,01,22,20,44,1.10
2014,01,22,20,45,1.10
2014,01,22,20,46,1.10
2014,01,22,20,47,1.10
2014,01,22,20,48,1.10
2014,01,22,20,49,1.10
2014,01,22,20,50,1.10
2014,01,22,20,51,1.10
2014,01,22,20,52,1.10
2014,01,22,20,53,1.10
2014,01,22,20,54,1.00
2014,01,22,20,55,1.00
2014,01,22,20,56,1.00
2014,01,22,20,57,1.00
2014,01,22,20,58,1.00
2014,01,22,20,59,1.00
2014,01,22,21,00,1.00
2014,01,22,21,01,1.00
2014,01,22,21,02,1.00
2014,01,22,21,03,1.00
2014,01,22,21,04,1.00
2014,01,22,21,05,1.00
2014,01,22,21,06,1.10
2014,01,22,21,07,1.10
2014,01,22,21,08,1.10
2014,01,22,21,09,1.10
2014,01,22,21,10,1.10
2014,01,22,21,11,1.10
2014,01,22,21,12,1.10
2014,01,22,21,13,1.10
2014,01,22,21,14,1.10
2014,01,22,21,15,1.10
2014,01,22,21,16,1.10
2014,01,22,21,17,1.00
2014,01,22,21,18,1.00
2014,01,22,21,19,1.00
2014,01,22,21,20,1.00
2014,01,22,21,21,1.00
2014,01,22,21,22,1.00
2014,01,22,21,23,1.00
2014,01,22,21,24,1.00
2014,01,22,21,25,1.00
2014,01,22,21,26,1.00
2014,01,22,21,27,1.00
2014,01,22,21,28,1.00
2014,01,22,21,29,1.00
2014,01,22,21,30,1.10
2014,01,22,21,31,1.10
2014,01,22,21,32,1.10
2014,01,22,21,33,1.10
2014,01,22,21,34,1.10
2014,01,22,21,35,1.10
2014,01,22,21,36,1.10
2014,01,22,21,37,1.10
2014,01,22,21,38,1.10
2014,01,22,21,39,1.10
2014,01,22,21,40,1.10
2014,01,22,21,41,1.10
2014,01,22,21,42,1.10
2014,01,22,21,43,1.10
2014,01,22,21,44,1.00
2014,01,22,21,45,1.00
2014,01,22,21,46,1.00
2014,01,22,21,47,1.00
2014,01,22,21,48,1.00
2014,01,22,21,49,1.10
2014,01,22,21,50,1.10
2014,01,22,21,51,1.10
2014,01,22,21,52,1.10
2014,01,22,21,53,1.10
2014,01,22,21,54,1.20
2014,01,22,21,55,1.20
2014,01,22,21,56,1.20
2014,01,22,21,57,1.20
2014,01,22,21,58,1.20
2014,01,22,21,59,1.20
2014,01,22,22,00,1.20
2014,01,22,22,01,1.20
2014,01,22,22,02,1.20
2014,01,22,22,03,1.20
2014,01,22,22,04,1.20
2014,01,22,22,05,1.20
2014,01,22,22,06,1.20
2014,01,22,22,07,1.20
2014,01,22,22,08,1.20
2014,01,22,22,09,1.20
2014,01,22,22,10,1.10
2014,01,22,22,11,1.10
2014,01,22,22,12,1.20
2014,01,22,22,13,1.20
2014,01,22,22,14,1.10
2014,01,22,22,15,1.20
2014,01,22,22,16,1.20
2014,01,22,22,17,1.20
2014,01,22,22,18,1.20
2014,01,22,22,19,1.20
2014,01,22,22,20,1.30
2014,01,22,22,21,1.30
2014,01,22,22,22,1.30
2014,01,22,22,23,1.30
2014,01,22,22,24,1.30
2014,01,22,22,25,1.30
2014,01,22,22,26,1.30
2014,01,22,22,27,1.30
2014,01,22,22,28,1.30
2014,01,22,22,29,1.30
2014,01,22,22,30,1.20
2014,01,22,22,31,1.20
2014,01,22,22,32,1.20
2014,01,22,22,33,1.20
2014,01,22,22,34,1.20
2014,01,22,22,35,1.20
2014,01,22,22,36,1.20
2014,01,22,22,37,1.20
2014,01,22,22,38,1.20
2014,01,22,22,39,1.20
2014,01,22,22,40,1.20
2014,01,22,22,41,1.20
2014,01,22,22,42,1.20
2014,01,22,22,43,1.20
2014,01,22,22,44,1.20
2014,01,22,22,45,1.20
2014,01,22,22,46,1.20
2014,01,22,22,47,1.20
2014,01,22,22,48,1.20
2014,01,22,22,49,1.20
2014,01,22,22,50,1.20
2014,01,22,22,51,1.20
2014,01,22,22,52,1.20
2014,01,22,22,53,1.20
2014,01,22,22,54,1.20
2014,01,22,22,55,1.20
2014,01,22,22,56,1.20
2014,01,22,22,57,1.20
2014,01,22,22,58,1.20
2014,01,22,22,59,1.20
2014,01,22,23,00,1.20
2014,01,22,23,01,1.20
2014,01,22,23,02,1.30
2014,01,22,23,03,1.30
2014,01,22,23,04,1.30
2014,01,22,23,05,1.30
2014,01,22,23,06,1.30
2014,01,22,23,07,1.40
2014,01,22,23,08,1.40
2014,01,22,23,09,1.40
2014,01,22,23,10,1.40
2014,01,22,23,11,1.40
2014,01,22,23,12,1.40
2014,01,22,23,13,1.40
2014,01,22,23,14,1.40
2014,01,22,23,15,1.40
2014,01,22,23,16,1.40
2014,01,22,23,17,1.40
2014,01,22,23,18,1.40
2014,01,22,23,19,1.40
2014,01,22,23,20,1.50
2014,01,22,23,21,1.50
2014,01,22,23,22,1.50
2014,01,22,23,23,1.50
2014,01,22,23,24,1.50
2014,01,22,23,25,1.50
2014,01,22,23,26,1.40
2014,01,22,23,27,1.40
2014,01,22,23,28,1.40
2014,01,22,23,29,1.40
2014,01,22,23,30,1.40
2014,01,22,23,31,1.40
2014,01,22,23,32,1.40
2014,01,22,23,33,1.40
2014,01,22,23,34,1.40
2014,01,22,23,35,1.40
2014,01,22,23,36,1.40
2014,01,22,23,37,1.40
2014,01,22,23,38,1.40
2014,01,22,23,39,1.40
2014,01,22,23,40,1.50
2014,01,22,23,41,1.50
2014,01,22,23,42,1.50
2014,01,22,23,43,1.50
2014,01,22,23,44,1.50
2014,01,22,23,45,1.50
2014,01,22,23,46,1.50
2014,01,22,23,47,1.60
2014,01,22,23,48,1.60
2014,01,22,23,49,1.60
2014,01,22,23,50,1.60
2014,01,22,23,51,1.70
2014,01,22,23,52,1.70
2014,01,22,23,53,1.70
2014,01,22,23,54,1.70
2014,01,22,23,55,1.80
2014,01,22,23,56,1.80
2014,01,22,23,57,1.80
2014,01,22,23,58,1.80
2014,01,22,23,59,1.80
